Overview Statistics Trail Chart Weather Telemetry Raw packets
 

This is the latest recevied weather packets stored in our database for station/object W1SCW. If no packets are shown the sender has not sent any weather packets the latest 10 day(s).

<< 8 9 10 11 12 13 14 >>
Time Temp. Humidity Pressure Rain* Wind** Luminosity Snow
1788530863 28.89° C 92% 1013.1 hPa 0 mm - 146 W/m² -
1788530558 28.89° C 92% 1012.9 hPa 0 mm - 146 W/m² -
1788530257 28.33° C 92% 1013 hPa 0 mm - 152 W/m² -
1788529952 28.33° C 92% 1013 hPa 0 mm - 106 W/m² -
1788529648 28.33° C 92% 1012.8 hPa 0 mm - 106 W/m² -
1788529348 27.78° C 92% 1013 hPa 0 mm - 74 W/m² -
1788529042 28.33° C 92% 1013 hPa 0 mm - 73 W/m² -
1788528739 28.33° C 91% 1012.9 hPa 0 mm - 72 W/m² -
1788528438 28.33° C 91% 1012.9 hPa 0 mm - 72 W/m² -
1788528134 28.33° C 91% 1012.7 hPa 0 mm - 72 W/m² -
1788527832 28.33° C 91% 1012.8 hPa 0 mm - 170 W/m² -
1788527529 26.67° C 97% 1012.7 hPa 0 mm - 34 W/m² -
1788527229 26.67° C 97% 1012.5 hPa 0 mm - 34 W/m² -
1788526928 26.67° C 97% 1012.6 hPa 0 mm - 34 W/m² -
1788526624 26.67° C 97% 1012.7 hPa 0 mm - 34 W/m² -
1788526320 26.67° C 97% 1012.5 hPa 0 mm - 34 W/m² -
1788526015 26.67° C 97% 1012.2 hPa 0 mm - 31 W/m² -
1788525710 26.67° C 97% 1012.2 hPa 0 mm - 29 W/m² -
1788525410 27.22° C 97% 1012.1 hPa 0 mm - 34 W/m² -
1788525107 26.67° C 98% 1012.1 hPa 0 mm - 31 W/m² -
1788524806 26.67° C 98% 1011.9 hPa 0 mm - 26 W/m² -
1788524501 26.67° C 97% 1011.9 hPa 0 mm - 16 W/m² -
1788524196 26.67° C 97% 1011.8 hPa 0 mm - 11 W/m² -
1788523892 26.67° C 97% 1011.8 hPa 0 mm - 8 W/m² -
1788523607 26.67° C 97% 1011.9 hPa 0 mm - 5 W/m² -

* Rain latest hour (hover to see other rain measurements)
** Current wind speed in m/s (hover to see current wind gust speed)